| time (UTC) | temp C | wind direction | speed KPH | gust KPH | rain 1hr cm | rain 24hr cm | rain mn cm | humidity % | barometer mb |
| 20260505191538 | 12 | 131 | 4.8 | 11.3 | 0.00 | 0.00 | 0.00 | 90 | 1011.7 |
| 20260505190035 | 13 | 126 | 4.8 | 8.0 | 0.00 | 0.00 | 0.00 | 87 | 1011.5 |
| 20260505184544 | 13 | 121 | 3.2 | 9.7 | 0.00 | 0.00 | 0.00 | 85 | 1011.4 |
| 20260505183039 | 14 | 193 | 4.8 | 12.9 | 0.00 | 0.00 | 0.00 | 84 | 1011.4 |
| 20260505181531 | 14 | 187 | 4.8 | 11.3 | 0.00 | 0.00 | 0.00 | 84 | 1011.3 |
| 20260505180031 | 14 | 190 | 8.0 | 11.3 | 0.00 | 0.00 | 0.00 | 83 | 1011.5 |
| 20260505174531 | 14 | 192 | 3.2 | 14.5 | 0.00 | 0.00 | 0.00 | 86 | 1011.4 |
| 20260505173031 | 13 | 172 | 3.2 | 12.9 | 0.00 | 0.00 | 0.00 | 86 | 1011.5 |
| 20260505171530 | 13 | 157 | 4.8 | 11.3 | 0.00 | 0.00 | 0.00 | 87 | 1011.3 |
| 20260505170036 | 13 | 182 | 8.0 | 16.1 | 0.00 | 0.00 | 0.00 | 88 | 1011.3 |
| 20260505164534 | 13 | 179 | 4.8 | 11.3 | 0.00 | 0.00 | 0.00 | 88 | 1011.1 |
| 20260505163029 | 13 | 211 | 4.8 | 11.3 | 0.00 | 0.00 | 0.00 | 88 | 1011.2 |
| 20260505161528 | 13 | 215 | 3.2 | 12.9 | 0.00 | 0.00 | 0.00 | 88 | 1011.4 |
| 20260505153027 | 13 | 221 | 14.5 | 27.4 | 0.00 | 0.00 | 0.00 | 85 | 1011.4 |
| 20260505151533 | 13 | 219 | 22.5 | 32.2 | 0.00 | 0.00 | 0.00 | 84 | 1011.3 |
| 20260505124518 | 15 | 234 | 9.7 | 14.5 | 0.00 | 0.00 | 0.00 | 83 | 1011.0 |
| 20260505123015 | 15 | 198 | 0.0 | 4.8 | 0.00 | 0.00 | 0.00 | 86 | 1011.1 |
| 20260505121511 | 15 | 242 | 0.0 | 8.0 | 0.00 | 0.00 | 0.00 | 88 | 1011.1 |
| 20260505120014 | 14 | 233 | 1.6 | 9.7 | 0.00 | 0.00 | 0.00 | 87 | 1011.1 |
| 20260505114505 | 13 | 240 | 0.0 | 6.4 | 0.00 | 0.00 | 0.00 | 91 | 1011.1 |
| 20260505113003 | 13 | 240 | 0.0 | 3.2 | 0.00 | 0.00 | 0.00 | 92 | 1011.3 |
| 20260505111502 | 13 | 246 | 0.0 | 6.4 | 0.00 | 0.00 | 0.00 | 92 | 1011.2 |
| 20260505101558 | 12 | 241 | 0.0 | 0.0 | 0.00 | 0.00 | 0.00 | 91 | 1011.6 |
| 20260505100055 | 12 | 240 | 0.0 | 0.0 | 0.00 | 0.00 | 0.00 | 92 | 1011.4 |
| 20260505094600 | 12 | 240 | 0.0 | 0.0 | 0.00 | 0.00 | 0.00 | 93 | 1011.4 |
| 20260505093055 | 12 | 240 | 0.0 | 0.0 | 0.00 | 0.00 | 0.00 | 94 | 1011.4 |
| 20260505091550 | 12 | 236 | 1.6 | 6.4 | 0.00 | 0.00 | 0.00 | 93 | 1011.3 |
| 20260505090055 | 12 | 311 | 0.0 | 6.4 | 0.00 | 0.00 | 0.00 | 94 | 1011.3 |
| 20260505084545 | 12 | 190 | 0.0 | 0.0 | 0.00 | 0.00 | 0.00 | 95 | 1011.5 |
| 20260505083100 | 11 | 190 | 0.0 | 0.0 | 0.00 | 0.00 | 0.00 | 95 | 1011.5 |
| 20260505081539 | 11 | 200 | 0.0 | 3.2 | 0.00 | 0.00 | 0.00 | 95 | 1011.8 |
| 20260505080042 | 11 | 232 | 0.0 | 9.7 | 0.00 | 0.00 | 0.00 | 96 | 1011.8 |
| 20260505074536 | 11 | 355 | 0.0 | 1.6 | 0.00 | 0.00 | 0.00 | 96 | 1012.0 |
| 20260505073032 | 11 | 355 | 0.0 | 3.2 | 0.00 | 0.00 | 0.00 | 96 | 1012.3 |
| 20260505071533 | 10 | 284 | 0.0 | 0.0 | 0.00 | 0.00 | 0.00 | 96 | 1012.4 |
| 20260505070030 | 10 | 284 | 0.0 | 6.4 | 0.00 | 0.00 | 0.00 | 96 | 1012.5 |
| 20260505064529 | 10 | 267 | 0.0 | 4.8 | 0.00 | 0.00 | 0.00 | 96 | 1012.6 |
| 20260505063028 | 10 | 267 | 0.0 | 0.0 | 0.00 | 0.00 | 0.00 | 96 | 1012.7 |
| 20260505061529 | 10 | 268 | 0.0 | 4.8 | 0.00 | 0.00 | 0.00 | 97 | 1012.8 |
| 20260505060027 | 10 | 263 | 0.0 | 0.0 | 0.00 | 0.00 | 0.00 | 97 | 1012.8 |
| 20260505054540 | 10 | 237 | 0.0 | 0.0 | 0.00 | 0.00 | 0.00 | 97 | 1012.8 |
| 20260505053026 | 9 | 236 | 0.0 | 8.0 | 0.00 | 0.00 | 0.00 | 97 | 1012.6 |
| 20260505051522 | 9 | 127 | 0.0 | 0.0 | 0.00 | 0.00 | 0.00 | 97 | 1012.5 |
| 20260505041515 | 8 | 127 | 0.0 | 0.0 | 0.00 | 0.00 | 0.00 | 96 | 1012.6 |
| 20260505040019 | 8 | 126 | 0.0 | 3.2 | 0.00 | 0.00 | 0.00 | 96 | 1012.8 |
| 20260505034616 | 8 | 128 | 0.0 | 0.0 | 0.00 | 0.00 | 0.00 | 96 | 1012.6 |
| 20260505033013 | 8 | 128 | 0.0 | 0.0 | 0.00 | 0.00 | 0.00 | 96 | 1012.6 |
| 20260505031507 | 8 | 128 | 0.0 | 0.0 | 0.00 | 0.00 | 0.00 | 96 | 1012.7 |
| 20260505030013 | 8 | 128 | 0.0 | 0.0 | 0.00 | 0.00 | 0.00 | 96 | 1012.8 |
| 20260505024504 | 8 | 128 | 0.0 | 6.4 | 0.00 | 0.00 | 0.00 | 96 | 1012.9 |
| 20260505023004 | 9 | 136 | 0.0 | 6.4 | 0.00 | 0.00 | 0.00 | 96 | 1013.0 |
| 20260505021504 | 9 | 128 | 3.2 | 12.9 | 0.00 | 0.00 | 0.00 | 96 | 1013.0 |
| 20260505020003 | 8 | 136 | 0.0 | 4.8 | 0.00 | 0.00 | 0.00 | 96 | 1013.1 |
| 20260505014500 | 8 | 128 | 3.2 | 9.7 | 0.00 | 0.00 | 0.00 | 96 | 1013.2 |
| 20260505013103 | 9 | 124 | 1.6 | 6.4 | 0.00 | 0.00 | 0.00 | 96 | 1013.2 |
| 20260505011611 | 9 | 124 | 1.6 | 6.4 | 0.00 | 0.00 | 0.00 | 96 | 1013.3 |
| 20260505010106 | 8 | 125 | 3.2 | 6.4 | 0.00 | 0.00 | 0.00 | 96 | 1013.6 |
| 20260505004557 | 9 | 121 | 0.0 | 4.8 | 0.00 | 0.00 | 0.00 | 96 | 1013.7 |
| 20260505004512 | 9 | 121 | 0.0 | 4.8 | 0.00 | 0.00 | 0.00 | 96 | 1013.8 |
| 20260505003053 | 9 | 121 | 0.0 | 0.0 | 0.00 | 0.00 | 0.00 | 95 | 1014.0 |
| 20260505001553 | 9 | 123 | 0.0 | 9.7 | 0.00 | 0.00 | 0.00 | 95 | 1014.1 |
| 20260505000057 | 9 | 121 | 6.4 | 8.0 | 0.00 | 0.00 | 0.00 | 95 | 1014.2 |
| 20260504234555 | 9 | 138 | 4.8 | 9.7 | 0.00 | 0.00 | 0.00 | 95 | 1014.4 |
| 20260504233046 | 9 | 119 | 4.8 | 8.0 | 0.00 | 0.00 | 0.00 | 95 | 1014.5 |
| 20260504231543 | 10 | 123 | 3.2 | 11.3 | 0.00 | 0.00 | 0.00 | 95 | 1014.7 |
| 20260504230041 | 10 | 111 | 6.4 | 8.0 | 0.00 | 0.00 | 0.00 | 95 | 1014.8 |
| 20260504224541 | 10 | 117 | 3.2 | 6.4 | 0.00 | 0.00 | 0.00 | 95 | 1014.9 |
| 20260504223039 | 10 | 119 | 3.2 | 9.7 | 0.00 | 0.00 | 0.00 | 94 | 1014.9 |
| 20260504221539 | 10 | 121 | 1.6 | 8.0 | 0.00 | 0.00 | 0.00 | 94 | 1015.0 |
| 20260504220045 | 10 | 135 | 4.8 | 12.9 | 0.00 | 0.00 | 0.00 | 94 | 1015.1 |
| 20260504214535 | 10 | 111 | 3.2 | 6.4 | 0.00 | 0.00 | 0.00 | 93 | 1015.0 |
| 20260504213039 | 11 | 112 | 3.2 | 4.8 | 0.00 | 0.00 | 0.00 | 92 | 1015.2 |
| 20260504211537 | 11 | 168 | 1.6 | 4.8 | 0.00 | 0.00 | 0.00 | 91 | 1015.3 |
| 20260504210028 | 11 | 174 | 0.0 | 0.0 | 0.00 | 0.00 | 0.00 | 90 | 1015.5 |
| 20260504204537 | 11 | 175 | 0.0 | 1.6 | 0.00 | 0.00 | 0.00 | 90 | 1015.7 |
| 20260504203028 | 11 | 324 | 0.0 | 0.0 | 0.00 | 0.00 | 0.00 | 90 | 1015.7 |
| 20260504201527 | 12 | 321 | 0.0 | 0.0 | 0.00 | 0.00 | 0.00 | 89 | 1015.8 |
| 20260504200027 | 12 | 321 | 0.0 | 0.0 | 0.00 | 0.00 | 0.00 | 89 | 1015.7 |
| 20260504194526 | 12 | 323 | 0.0 | 0.0 | 0.00 | 0.00 | 0.00 | 89 | 1015.6 |
| 20260504193026 | 12 | 195 | 0.0 | 0.0 | 0.00 | 0.00 | 0.00 | 88 | 1015.5 |